Atka, AK

6:50 AM HST on January 22, 2018 (GMT -1000)
Atka

Weather History for PAAK - March, 2013

Change the Weather History Date:

Sunday, March 10, 2013

  Actual Average (PADK) Record (PADK)
Temperature  
Mean Temperature 40 °F -  
Max Temperature 42 °F 38 °F 43 °F (1989)
Min Temperature 37 °F 28 °F 17 °F (1978)
Degree Days  
Heating Degree Days 26    
Moisture  
Dew Point 32 °F    
Average Humidity 73    
Maximum Humidity 81    
Minimum Humidity 61    
Precipitation  
Precipitation 0.00 in - - ()
Sea Level Pressure  
Sea Level Pressure 30.46 in    
Wind  
Wind Speed 13 mph (SSE)    
Max Wind Speed 22 mph    
Max Gust Speed 31 mph    
Averages and records for this station are not official NWS values.
T = Trace of Precipitation, MM = Missing Value Source: NWS Daily Summary

Daily Weather History Graph

Daily Weather History Graph

Search for Another Location

Airport or City:

Trip Planner

Search our weather history database for the weather conditions in past years. The results will help you decide how hot, cold, wet, or windy it might be!

Date:

Astronomy

Mar. 10, 2013 Rise Set
Actual Time 9:01 AM HDT 8:33 PM HDT
Civil Twilight 8:27 AM HDT 9:07 PM HDT
Nautical Twilight 7:48 AM HDT 9:46 PM HDT
Astronomical Twilight 7:08 AM HDT 10:27 PM HDT
Moon 8:12 AM HDT (3/10) 7:57 PM HDT (3/10)
Length of Visible Light 12h 39m
Length of Day
11h 32m
Waning Crescent, 1% of the Moon is Illuminated
Mar 10
Waning Crescent
Mar 11
New
Mar 19
First Quarter
Mar 27
Full
Apr 2
Last Quarter

Hourly Weather History & Observations

Time (HDT) Temp. Windchill Dew Point Humidity Pressure Visibility Wind Dir Wind Speed Gust Speed Precip Events Conditions
12:16 AM 39.2 °F 33.0 °F 33.8 °F 81% 30.36 in - South 9.2 mph - N/A   Overcast
12:36 AM 39.2 °F 31.6 °F 33.8 °F 81% 30.36 in - South 12.7 mph - N/A   Overcast
12:56 AM 39.2 °F 31.6 °F 33.8 °F 81% 30.37 in - South 12.7 mph - N/A   Overcast
1:16 AM 39.2 °F 33.0 °F 33.8 °F 81% 30.37 in - South 9.2 mph - N/A   Overcast
1:36 AM 39.2 °F 33.0 °F 30.2 °F 70% 30.38 in - SSE 9.2 mph 18.4 mph N/A   Overcast
1:56 AM 39.2 °F 30.8 °F 30.2 °F 70% 30.38 in - SSE 15.0 mph 20.7 mph N/A   Overcast
3:16 AM 39.2 °F 30.8 °F 28.4 °F 65% 30.39 in - South 15.0 mph 23.0 mph N/A   Overcast
3:36 AM 39.2 °F 31.2 °F 28.4 °F 65% 30.39 in - South 13.8 mph - N/A   Overcast
3:56 AM 39.2 °F 31.6 °F 28.4 °F 65% 30.39 in - South 12.7 mph 16.1 mph N/A   Overcast
4:16 AM 39.2 °F 33.0 °F 28.4 °F 65% 30.39 in - SE 9.2 mph - N/A   Overcast
4:36 AM 37.4 °F 32.1 °F 30.2 °F 75% 30.39 in - South 6.9 mph - N/A   Overcast
4:56 AM 37.4 °F 31.4 °F 30.2 °F 75% 30.40 in - SSE 8.1 mph - N/A   Overcast
5:16 AM 37.4 °F 30.8 °F 32.0 °F 81% 30.40 in - SSE 9.2 mph 18.4 mph N/A   Overcast
5:36 AM 37.4 °F 29.8 °F 30.2 °F 75% 30.39 in - SSE 11.5 mph 18.4 mph N/A   Overcast
5:56 AM 37.4 °F 28.5 °F 30.2 °F 75% 30.39 in - SE 15.0 mph 19.6 mph N/A   Overcast
6:16 AM 39.2 °F 32.0 °F 30.2 °F 70% 30.39 in - SSE 11.5 mph 17.3 mph N/A   Overcast
6:36 AM 39.2 °F 32.5 °F 28.4 °F 65% 30.40 in - SE 10.4 mph 17.3 mph N/A   Overcast
6:56 AM 39.2 °F 31.6 °F 28.4 °F 65% 30.40 in - SSE 12.7 mph 21.9 mph N/A   Overcast
7:16 AM 39.2 °F 31.2 °F 28.4 °F 65% 30.40 in - SSE 13.8 mph 18.4 mph N/A   Overcast
7:36 AM 39.2 °F 31.2 °F 30.2 °F 70% 30.41 in - SE 13.8 mph 19.6 mph N/A   Overcast
7:56 AM 39.2 °F 30.5 °F 28.4 °F 65% 30.42 in - SSE 16.1 mph 28.8 mph N/A   Overcast
8:16 AM 39.2 °F 32.0 °F 30.2 °F 70% 30.42 in - SSE 11.5 mph 19.6 mph N/A   Overcast
8:36 AM 39.2 °F 29.8 °F 28.4 °F 65% 30.42 in - SSE 18.4 mph 25.3 mph N/A   Overcast
8:56 AM 39.2 °F 31.2 °F 28.4 °F 65% 30.43 in - SSE 13.8 mph 20.7 mph N/A   Overcast
9:16 AM 39.2 °F 31.2 °F 28.4 °F 65% 30.43 in - SE 13.8 mph 21.9 mph N/A   Overcast
9:36 AM 39.2 °F 30.2 °F 28.4 °F 65% 30.43 in - SE 17.3 mph 21.9 mph N/A   Overcast
9:56 AM 39.2 °F 30.8 °F 30.2 °F 70% 30.43 in - SE 15.0 mph 24.2 mph N/A   Overcast
10:16 AM 39.2 °F 30.2 °F 30.2 °F 70% 30.44 in - SE 17.3 mph 25.3 mph N/A   Overcast
10:36 AM 39.2 °F 30.8 °F 33.8 °F 81% 30.45 in - ESE 15.0 mph 21.9 mph N/A   Overcast
10:56 AM 39.2 °F 29.8 °F 33.8 °F 81% 30.45 in - SE 18.4 mph 23.0 mph N/A   Overcast
11:16 AM 39.2 °F 30.5 °F 33.8 °F 81% 30.46 in - SE 16.1 mph 28.8 mph N/A   Overcast
11:36 AM 39.2 °F 29.6 °F 32.0 °F 75% 30.46 in - SE 19.6 mph 27.6 mph N/A   Overcast
11:56 AM 39.2 °F 29.0 °F 33.8 °F 81% 30.46 in - SE 21.9 mph 28.8 mph N/A   Overcast
12:16 PM 39.2 °F 29.6 °F 33.8 °F 81% 30.47 in - SE 19.6 mph 29.9 mph N/A   Overcast
12:36 PM 41.0 °F 33.1 °F 32.0 °F 70% 30.47 in - SE 15.0 mph 26.5 mph N/A   Overcast
12:56 PM 39.2 °F 31.6 °F 32.0 °F 75% 30.48 in - SSE 12.7 mph 28.8 mph N/A   Overcast
1:16 PM 39.2 °F 31.6 °F 32.0 °F 75% 30.48 in - SSE 12.7 mph 29.9 mph N/A   Overcast
1:36 PM 39.2 °F 29.6 °F 32.0 °F 75% 30.47 in - SE 19.6 mph 26.5 mph N/A   Overcast
1:56 PM 39.2 °F 30.2 °F 30.2 °F 70% 30.48 in - SE 17.3 mph 26.5 mph N/A   Overcast
2:16 PM 39.2 °F 31.6 °F 32.0 °F 75% 30.49 in - SE 12.7 mph 24.2 mph N/A   Overcast
2:36 PM 39.2 °F 31.2 °F 32.0 °F 75% 30.49 in - South 13.8 mph 26.5 mph N/A   Overcast
2:56 PM 39.2 °F 30.2 °F 32.0 °F 75% 30.49 in - SSE 17.3 mph 24.2 mph N/A   Overcast
3:16 PM 39.2 °F 29.6 °F 32.0 °F 75% 30.49 in - SSE 19.6 mph 26.5 mph N/A   Overcast
3:36 PM 41.0 °F 31.9 °F 30.2 °F 65% 30.49 in - SSE 19.6 mph 27.6 mph N/A   Overcast
3:56 PM 42.8 °F 34.0 °F 30.2 °F 61% 30.49 in - SSE 20.7 mph 31.1 mph N/A   Overcast
4:16 PM 42.8 °F 35.1 °F 30.2 °F 61% 30.49 in - SSE 16.1 mph 24.2 mph N/A   Mostly Cloudy
4:36 PM 42.8 °F 35.8 °F 32.0 °F 66% 30.48 in - SSE 13.8 mph 24.2 mph N/A   Scattered Clouds
4:56 PM 42.8 °F 34.8 °F 32.0 °F 66% 30.49 in - SE 17.3 mph 27.6 mph N/A   Mostly Cloudy
5:16 PM 42.8 °F 36.2 °F 33.8 °F 70% 30.49 in - SSE 12.7 mph 21.9 mph N/A   Overcast
5:36 PM 41.0 °F 32.8 °F 32.0 °F 70% 30.48 in - SE 16.1 mph 24.2 mph N/A   Overcast
5:56 PM 41.0 °F 31.6 °F 32.0 °F 70% 30.49 in - SE 20.7 mph 27.6 mph N/A   Overcast
6:16 PM 41.0 °F 32.8 °F 32.0 °F 70% 30.49 in - SE 16.1 mph 23.0 mph N/A   Overcast
6:36 PM 41.0 °F 33.5 °F 33.8 °F 76% 30.50 in - SE 13.8 mph 20.7 mph N/A   Overcast
6:56 PM 39.2 °F 30.5 °F 33.8 °F 81% 30.49 in - SE 16.1 mph 24.2 mph N/A   Overcast
7:16 PM 39.2 °F 31.6 °F 33.8 °F 81% 30.50 in - SE 12.7 mph 23.0 mph N/A   Overcast
7:36 PM 39.2 °F 31.2 °F 32.0 °F 75% 30.50 in - SE 13.8 mph 21.9 mph N/A   Overcast
7:56 PM 39.2 °F 32.0 °F 32.0 °F 75% 30.51 in - SE 11.5 mph 17.3 mph N/A   Overcast
8:16 PM 39.2 °F 31.6 °F 33.8 °F 81% 30.51 in - SE 12.7 mph 23.0 mph N/A   Overcast
8:36 PM 39.2 °F 30.8 °F 32.0 °F 75% 30.52 in - SE 15.0 mph 23.0 mph N/A   Overcast
8:56 PM 39.2 °F 31.6 °F 32.0 °F 75% 30.52 in - SSE 12.7 mph 19.6 mph N/A   Overcast
9:16 PM 39.2 °F 30.8 °F 32.0 °F 75% 30.53 in - SSE 15.0 mph 21.9 mph N/A   Overcast
9:36 PM 39.2 °F 31.2 °F 32.0 °F 75% 30.54 in - SSE 13.8 mph 25.3 mph N/A   Overcast
9:56 PM 39.2 °F 32.5 °F 32.0 °F 75% 30.54 in - SSE 10.4 mph 19.6 mph N/A   Overcast
10:16 PM 39.2 °F 31.2 °F 33.8 °F 81% 30.54 in - SSE 13.8 mph - N/A   Overcast
10:36 PM 39.2 °F 31.2 °F 32.0 °F 75% 30.54 in - SSE 13.8 mph 21.9 mph N/A   Overcast
10:56 PM 39.2 °F 32.0 °F 32.0 °F 75% 30.54 in - SSE 11.5 mph 23.0 mph N/A   Overcast
11:16 PM 39.2 °F 30.8 °F 33.8 °F 81% 30.55 in - SSE 15.0 mph 20.7 mph N/A   Overcast
11:36 PM 39.2 °F 31.2 °F 33.8 °F 81% 30.55 in - SSE 13.8 mph - N/A   Overcast
11:56 PM 39.2 °F 33.0 °F 32.0 °F 75% 30.55 in - SSE 9.2 mph 19.6 mph N/A   Overcast
12:16 AM 39.2 °F 31.6 °F 33.8 °F 81% 30.56 in - SSE 12.7 mph - N/A   Overcast
12:36 AM 39.2 °F 34.2 °F 33.8 °F 81% 30.56 in - SSE 6.9 mph 20.7 mph N/A   Overcast
12:56 AM 39.2 °F 32.0 °F 33.8 °F 81% 30.57 in - SSE 11.5 mph - N/A   Overcast